Temp
76 76 73 74 72 73 71 72 73 74 73 72 71 72 71 70 69 67 67 66 64 64 65 65 63 64 63 64 64 63 62 62 59 59 60 61 61 61 62 62 63 62 60
78 75 74 72 70 70 71 72 73 73 71 73 72 73 72 70 70 70 68 69 67 65 64 63 62 64 64 64 63 63 62 62 60 57 59 59 60 61 61 60 60 62 61
80 75 72 70 71 71 72 72 72 71 72 72 72 73 71 70 69 69 69 67 68 67 65 65 64 63 63 63 63 62 62 61 60 59 58 59 60 60 60 60 60 59 60
81 74 72 72 70 72 72 72 74 72 72 71 71 73 71 70 69 70 70 69 69 67 65 65 62 62 63 63 62 62 61 60 60 59 58 58 58 59 59 57 56 58 57
79 74 73 71 72 72 72 72 74 72 73 71 72 70 69 69 69 69 69 68 67 65 64 66 63 61 59 61 62 61 61 60 59 58 58 57 56 56 55 55 55 56 55
76 75 75 73 74 72 71 72 72 72 72 72 70 69 68 68 51 54 60 67 67 65 64 63 62 59 56 55 57 58 61 60 59 58 58 56 56 55 55 56 56 56 52
79 76 76 74 75 72 72 72 70 69 68 67 67 69 66 64 51 51 53 67 65 66 65 65 65 64 61 60 53 54 54 54 58 62 58 58 56 56 57 57 58 59 57
80 77 77 75 76 75 69 70 69 68 67 67 68 67 65 63 52 46 49 67 66 66 66 66 64 64 61 62 61 61 60 61 61 61 61 60 60 59 61 62 62 62 61
81 77 78 78 75 74 71 69 69 67 66 65 67 67 65 63 46 47 58 66 65 65 66 66 65 61 50 51 60 59 59 58 53 51 51 50 50 52 60 64 61 60 58
82 82 79 79 74 73 70 69 69 69 67 67 64 65 59 63 47 47 54 64 63 62 64 62 53 57 48 51 61 60 58 58 59 58 56 53 53 54 52 62 66 61 60
84 84 79 77 74 72 70 69 69 69 68 65 65 63 66 64 58 48 48 65 65 64 64 61 58 47 49 50 55 62 59 61 56 60 60 61 61 61 62 63 65 62 62
84 84 80 77 78 76 71 69 70 68 67 66 64 62 65 65 54 49 48 53 57 67 65 64 55 46 49 51 56 47 48 56 63 62 61 61 61 63 64 63 64 63 64
82 80 78 78 76 75 72 70 70 70 68 67 65 65 64 65 63 49 48 49 52 65 67 52 43 46 46 48 47 47 49 64 64 62 62 63 64 64 64 62 62 63 62
80 78 77 76 74 74 76 73 72 71 71 71 69 66 66 65 64 64 63 61 54 57 52 55 54 54 54 56 54 54 66 66 65 65 64 65 64 64 62 62 59 59 57
79 78 77 78 75 74 75 73 76 64 67 73 71 71 67 66 67 61 63 67 64 60 60 61 63 63 63 63 64 65 67 68 67 67 66 64 64 63 62 62 60 59 57
77 78 78 78 77 77 72 70 44 49 47 46 50 68 72 59 51 51 51 52 49 49 64 65 66 65 64 65 65 66 68 66 69 69 67 66 65 65 64 64 64 61 58
77 77 79 75 77 77 76 75 70 57 45 47 47 52 57 56 48 46 47 46 47 49 69 69 69 69 69 69 69 69 69 70 70 71 69 67 67 67 60 65 65 63 60
79 62 80 80 79 80 78 77 77 72 70 67 50 55 48 46 45 45 43 50 61 58 70 71 70 71 72 72 72 71 70 70 69 69 69 68 66 67 64 64 63 61 60
80 81 81 80 82 77 80 80 80 76 75 73 63 54 45 42 41 42 45 70 69 69 70 72 73 73 72 73 73 73 73 72 71 68 67 67 66 66 64 65 64 51 54
81 67 71 81 82 80 81 81 80 78 75 75 70 68 61 55 61 62 62 69 71 72 72 72 73 73 73 73 72 73 73 67 68 70 70 69 68 69 67 66 66 63 60
84 81 66 81 83 83 82 81 81 81 78 77 75 71 52 67 67 67 66 68 70 74 75 75 76 76 74 74 75 73 72 70 71 71 71 70 69 69 67 66 65 65 62
86 84 81 82 84 84 83 82 81 82 82 80 79 70 45 70 72 71 70 70 71 72 76 75 77 78 78 77 75 74 75 74 72 71 71 71 70 69 67 67 67 63 61
88 86 83 82 82 70 75 83 83 82 82 82 83 72 66 70 73 73 73 73 72 72 74 74 75 78 79 77 77 77 77 76 74 74 72 72 71 69 69 65 65 64 61
90 88 87 83 83 83 83 81 82 68 83 83 82 74 71 72 74 74 75 76 75 75 75 75 76 77 77 77 77 79 79 77 77 76 74 72 71 61 68 66 66 63 58
90 87 87 83 83 81 83 82 81 83 83 83 82 81 74 76 77 78 78 78 78 78 77 77 77 77 77 77 77 78 67 47 70 64 72 72 70 68 69 66 63 59 49
87 87 86 87 84 82 81 82 81 82 83 83 83 83 82 78 79 79 79 79 79 80 79 80 79 78 78 78 78 65 46 42 53 47 72 69 68 68 70 65 62 52 48
MSLP
1002.23 1002.60 1002.99 1003.34 1003.80 1004.03 1004.45 1004.60 1004.68 1004.73 1005.02 1005.26 1005.61 1005.72 1005.91 1006.07 1006.26 1006.49 1006.65 1006.85 1007.02 1007.15 1007.31 1007.45 1007.57 1007.60 1007.69 1007.51 1008.20 1008.52 1009.09 1009.75 1010.70 1012.04 1012.68 1013.20 1013.71 1014.42 1015.45 1016.15 1017.04 1017.67 1018.51
1002.01 1002.61 1003.03 1003.44 1004.04 1004.28 1004.46 1004.64 1004.81 1004.80 1005.04 1005.25 1005.50 1005.53 1005.71 1006.14 1006.31 1006.47 1006.81 1006.84 1007.03 1007.25 1007.39 1007.66 1007.70 1007.82 1007.79 1008.17 1008.58 1009.08 1009.46 1010.21 1010.89 1011.86 1013.04 1013.75 1014.18 1015.02 1015.75 1016.34 1017.26 1018.04 1018.95
1001.68 1002.44 1002.97 1003.57 1004.00 1004.23 1004.37 1004.65 1004.79 1004.92 1005.10 1005.30 1005.46 1005.56 1005.98 1006.29 1006.57 1006.83 1006.93 1007.10 1007.11 1007.04 1007.17 1007.45 1007.83 1007.95 1008.14 1008.42 1008.84 1009.48 1010.09 1010.91 1011.62 1012.24 1013.39 1014.14 1014.59 1015.38 1016.20 1017.23 1018.18 1018.98 1019.90
1001.40 1002.43 1002.94 1003.51 1003.98 1004.20 1004.40 1004.51 1004.45 1004.80 1005.07 1005.38 1005.63 1005.93 1006.36 1006.67 1006.94 1007.11 1007.12 1007.10 1007.12 1007.37 1007.49 1007.76 1008.11 1008.46 1008.60 1008.78 1009.32 1009.90 1010.53 1011.24 1011.91 1012.74 1013.79 1014.76 1015.45 1016.53 1017.09 1017.79 1019.10 1020.04 1020.80
1001.33 1002.32 1002.95 1003.55 1003.92 1004.14 1004.46 1004.52 1004.54 1004.63 1004.99 1005.57 1005.98 1006.55 1006.97 1007.11 1007.41 1007.46 1007.54 1007.40 1007.37 1007.75 1008.02 1008.23 1008.73 1008.96 1008.98 1009.15 1009.58 1010.26 1010.83 1011.59 1012.40 1013.19 1014.30 1015.25 1016.23 1017.02 1017.92 1018.99 1019.48 1020.44 1021.44
1001.58 1002.32 1002.77 1003.41 1003.81 1004.18 1004.47 1004.67 1004.81 1005.01 1005.26 1005.63 1006.27 1006.94 1007.17 1007.70 1008.18 1008.08 1008.01 1007.77 1007.71 1007.94 1008.40 1008.85 1009.16 1009.31 1009.54 1009.72 1010.15 1010.65 1011.12 1011.71 1012.59 1013.44 1014.70 1015.66 1016.68 1017.64 1018.60 1019.07 1019.64 1020.41 1021.47
1001.14 1002.11 1002.65 1003.32 1003.67 1004.22 1004.54 1004.87 1005.27 1005.55 1005.81 1006.27 1006.70 1007.01 1007.58 1008.19 1008.58 1008.49 1008.39 1008.06 1008.16 1008.30 1008.66 1009.02 1009.30 1009.90 1010.15 1010.45 1010.84 1011.42 1012.03 1012.55 1012.85 1013.42 1014.55 1015.76 1016.87 1017.61 1018.11 1018.96 1019.40 1019.84 1020.33
1000.89 1001.91 1002.49 1003.21 1003.63 1004.05 1004.56 1005.01 1005.50 1005.95 1006.21 1006.52 1006.86 1007.36 1007.98 1008.52 1008.83 1008.87 1008.68 1008.42 1008.51 1008.73 1008.90 1009.28 1009.79 1010.16 1010.69 1011.02 1011.45 1012.09 1012.78 1013.42 1013.88 1014.43 1014.93 1015.86 1016.52 1017.48 1017.79 1018.05 1018.80 1019.36 1020.39
1000.64 1001.55 1002.31 1002.82 1003.62 1004.18 1004.65 1005.22 1005.68 1006.00 1006.26 1006.61 1007.03 1007.54 1008.32 1008.88 1009.23 1009.24 1008.83 1008.81 1008.98 1009.21 1009.41 1009.74 1010.21 1010.78 1011.21 1011.47 1011.87 1012.58 1013.41 1014.27 1014.89 1015.30 1015.76 1016.32 1017.08 1017.62 1017.75 1018.38 1018.81 1019.36 1020.25
1000.46 1000.83 1002.04 1002.66 1003.54 1004.12 1004.73 1005.35 1005.68 1006.08 1006.56 1007.08 1007.54 1007.96 1008.43 1009.10 1009.51 1009.64 1009.45 1009.17 1009.46 1009.71 1010.08 1010.56 1010.91 1011.31 1011.82 1012.13 1012.43 1012.91 1013.78 1014.67 1015.43 1016.36 1017.09 1017.44 1017.48 1017.95 1018.22 1018.23 1018.46 1019.14 1019.86
1000.35 1000.73 1001.84 1002.62 1003.42 1004.16 1004.85 1005.36 1005.82 1006.20 1006.74 1007.27 1007.84 1008.32 1008.66 1009.16 1009.68 1009.75 1009.66 1009.60 1009.74 1010.01 1010.57 1011.21 1011.85 1012.03 1012.39 1012.66 1013.03 1013.40 1013.87 1014.65 1015.50 1016.17 1016.90 1017.56 1017.82 1018.03 1018.19 1018.27 1018.28 1018.81 1019.08
1000.21 1000.70 1001.57 1002.46 1003.15 1004.13 1004.87 1005.46 1005.82 1006.26 1006.76 1007.30 1007.88 1008.44 1008.86 1009.40 1009.81 1009.85 1009.85 1009.85 1010.09 1010.15 1010.89 1011.53 1012.35 1012.61 1012.68 1013.10 1013.50 1013.94 1014.54 1015.07 1015.52 1016.20 1016.91 1017.49 1017.75 1017.88 1017.90 1018.07 1018.27 1018.30 1018.07
1000.06 1000.79 1001.68 1002.47 1003.25 1004.01 1004.79 1005.48 1005.89 1006.20 1006.58 1007.11 1007.63 1008.05 1008.70 1009.26 1009.92 1010.14 1010.25 1010.38 1010.38 1010.67 1011.25 1011.90 1012.46 1012.70 1012.99 1013.37 1013.96 1014.45 1014.95 1015.22 1015.66 1016.21 1016.61 1016.97 1017.11 1017.32 1017.67 1018.22 1018.54 1018.46 1018.24
1000.05 1000.84 1001.71 1002.44 1003.17 1003.96 1004.51 1005.31 1005.64 1005.98 1006.06 1006.37 1007.02 1007.69 1008.30 1008.94 1009.63 1010.12 1010.50 1010.82 1010.89 1011.40 1011.90 1012.49 1012.75 1012.89 1013.00 1013.57 1014.32 1014.74 1014.83 1015.10 1015.35 1015.72 1016.02 1016.35 1016.79 1017.37 1017.72 1018.09 1018.58 1018.78 1018.90
999.94 1000.74 1001.58 1002.25 1002.84 1003.65 1004.37 1005.16 1005.24 1005.79 1005.65 1005.65 1006.32 1006.86 1007.62 1008.39 1009.14 1009.61 1010.03 1010.53 1010.98 1011.47 1011.94 1012.37 1012.56 1012.76 1013.12 1013.79 1014.08 1014.31 1014.42 1014.66 1014.88 1015.07 1015.55 1016.09 1016.73 1017.09 1017.47 1017.82 1018.27 1018.59 1018.83
999.74 1000.51 1001.26 1001.90 1002.60 1003.26 1004.17 1005.16 1005.56 1005.67 1005.45 1005.82 1005.88 1006.24 1007.08 1007.65 1008.73 1009.43 1009.83 1010.25 1010.73 1011.24 1011.55 1011.71 1011.94 1012.37 1012.77 1013.10 1013.45 1013.62 1013.55 1013.72 1013.94 1014.21 1014.76 1015.47 1016.07 1016.54 1016.85 1017.14 1017.34 1017.87 1018.27
999.29 1000.08 1000.82 1001.33 1002.20 1002.70 1003.34 1004.14 1005.34 1006.60 1006.30 1006.01 1006.21 1006.36 1006.87 1007.90 1008.61 1009.34 1009.72 1010.07 1010.45 1010.87 1010.96 1011.05 1011.17 1011.45 1011.97 1012.39 1012.62 1012.71 1012.74 1012.91 1013.08 1013.48 1013.97 1014.55 1015.01 1015.50 1015.73 1016.21 1016.75 1017.38 1017.88
998.94 999.60 1000.18 1000.86 1001.38 1001.86 1002.58 1003.18 1003.98 1005.10 1005.95 1006.74 1006.96 1007.15 1007.45 1008.04 1008.80 1009.25 1009.68 1010.17 1010.88 1010.97 1010.46 1010.21 1010.30 1010.46 1010.71 1011.16 1011.52 1011.72 1011.84 1012.12 1012.43 1012.71 1013.22 1013.67 1014.23 1014.71 1015.26 1015.76 1016.22 1016.70 1017.17
998.38 999.04 999.66 1000.23 1000.45 1001.18 1001.61 1002.22 1002.80 1003.71 1004.69 1005.63 1007.12 1007.80 1008.45 1008.85 1009.30 1009.42 1009.48 1009.67 1009.98 1010.10 1009.96 1009.66 1009.67 1009.66 1009.85 1010.08 1010.43 1010.71 1011.03 1011.39 1011.87 1012.38 1012.72 1013.15 1013.42 1013.92 1014.40 1014.92 1015.35 1015.88 1016.45
997.85 998.44 999.16 999.51 999.93 1000.32 1000.77 1001.26 1001.72 1002.42 1003.44 1004.41 1005.92 1007.10 1008.13 1008.74 1009.20 1009.38 1009.35 1009.10 1009.03 1009.09 1009.16 1009.16 1008.96 1008.78 1009.03 1009.36 1009.59 1009.88 1010.31 1010.93 1011.38 1011.76 1011.98 1012.35 1012.79 1013.11 1013.66 1014.12 1014.68 1015.13 1015.75
996.96 998.01 998.49 998.87 999.17 999.48 1000.00 1000.33 1000.82 1001.27 1002.10 1002.98 1004.06 1005.53 1006.53 1007.59 1007.64 1007.68 1007.86 1007.96 1007.96 1007.79 1007.88 1008.11 1008.21 1008.19 1008.11 1008.41 1008.77 1009.15 1009.58 1009.93 1010.15 1010.51 1011.04 1011.49 1011.89 1012.42 1012.82 1013.23 1013.74 1014.25 1014.85
996.04 996.86 997.81 998.17 998.26 998.58 999.04 999.56 999.99 1000.36 1000.82 1001.51 1002.52 1003.91 1005.44 1006.09 1006.17 1006.44 1006.76 1006.93 1006.85 1006.86 1006.75 1006.75 1006.93 1007.03 1007.19 1007.38 1007.70 1008.13 1008.51 1008.90 1009.21 1009.55 1009.99 1010.43 1010.89 1011.35 1011.83 1012.41 1013.00 1013.60 1014.41
994.90 995.64 996.49 997.25 997.75 997.81 998.37 998.72 999.12 999.57 999.98 1000.41 1001.01 1002.44 1003.95 1004.47 1004.51 1004.75 1005.06 1005.37 1005.82 1006.18 1006.36 1006.36 1006.21 1005.97 1006.06 1006.23 1006.49 1006.86 1007.18 1007.45 1007.69 1008.15 1008.69 1009.24 1009.83 1010.38 1010.83 1011.46 1012.13 1012.86 1013.53
993.86 994.34 995.09 996.09 996.74 997.15 997.27 997.83 998.21 998.67 999.06 999.50 1000.01 1000.98 1002.09 1002.76 1002.93 1003.09 1003.35 1003.77 1004.29 1004.74 1005.08 1005.25 1005.39 1005.48 1005.48 1005.28 1005.24 1005.27 1005.62 1006.01 1006.41 1006.93 1007.45 1008.07 1008.70 1009.33 1009.92 1010.61 1011.23 1011.98 1012.83
993.31 993.70 994.09 994.74 995.60 996.25 996.42 996.80 997.34 997.69 998.17 998.58 998.95 999.50 1000.41 1000.90 1001.24 1001.40 1001.68 1002.12 1002.46 1002.82 1003.16 1003.59 1003.96 1004.24 1004.38 1004.69 1004.71 1004.69 1004.74 1005.20 1005.47 1005.82 1006.32 1006.95 1007.51 1008.15 1008.71 1009.33 1010.25 1011.11 1012.29
993.72 993.29 993.74 993.85 994.39 995.11 995.74 995.92 996.29 996.76 996.99 997.44 997.75 998.14 998.63 999.40 999.77 1000.00 1000.24 1000.52 1000.78 1001.11 1001.49 1001.76 1002.09 1002.50 1002.90 1003.30 1003.47 1003.88 1004.27 1004.61 1004.99 1005.25 1005.59 1006.24 1006.74 1007.23 1007.60 1008.35 1009.28 1010.31 1011.80
Wind_Speed
8 6 6 5 5 5 3 3 3 1 6 5 5 4 4 4 3 4 4 4 4 2 1 2 4 2 3 7 5 5 5 7 9 5 6 9 14 16 14 12 13 11 11
8 11 8 5 7 5 4 5 4 3 5 4 6 5 6 5 3 1 4 4 5 4 3 1 2 2 6 7 5 6 7 8 11 14 10 8 13 15 14 15 10 10 11
9 11 6 7 5 5 5 5 6 5 4 4 4 3 9 5 5 4 4 4 2 3 2 2 7 6 5 6 7 8 8 8 9 11 10 9 8 12 12 13 11 12 9
8 12 7 6 6 5 5 4 3 7 5 5 5 8 6 6 3 3 3 1 2 4 4 5 7 6 5 6 9 9 9 9 12 12 12 11 9 10 11 13 10 8 8
10 10 9 7 5 5 5 4 3 6 6 8 8 9 4 4 4 3 3 2 4 6 5 7 6 7 9 10 8 9 12 10 12 11 12 10 11 11 11 8 10 9 6
14 11 8 7 7 6 6 5 3 3 6 7 9 7 3 6 8 9 7 3 5 7 7 8 6 8 9 13 13 12 11 14 16 11 12 12 9 11 10 10 11 10 5
9 11 9 10 8 8 7 7 7 6 7 7 7 6 8 6 8 9 9 3 5 6 7 8 7 7 9 11 15 16 15 15 11 15 16 13 15 13 11 10 10 7 6
9 12 9 10 8 5 7 7 7 6 6 6 5 9 8 4 7 9 9 5 6 6 6 9 9 9 9 11 12 14 13 12 11 9 13 13 14 13 10 12 8 9 9
10 12 10 10 9 6 8 8 7 6 4 6 6 10 8 4 8 8 7 5 8 8 7 9 10 11 12 12 14 14 13 12 13 15 13 14 13 12 7 8 7 11 8
11 11 13 10 11 7 9 8 6 5 5 5 8 7 8 5 5 6 6 5 8 7 8 10 12 11 13 12 13 15 14 13 14 12 8 7 11 6 2 1 8 9 8
11 11 14 10 9 9 9 6 6 7 8 8 8 5 6 5 3 5 8 6 6 7 7 7 6 10 12 11 11 12 13 15 13 11 10 8 7 3 3 4 4 6 8
11 10 13 11 9 9 10 7 6 8 8 8 9 5 6 5 6 4 9 8 5 8 9 7 5 8 10 13 9 14 14 12 9 9 8 7 7 6 4 4 5 2 2
11 10 12 9 12 8 10 9 6 5 7 7 6 7 6 6 5 6 7 9 5 8 7 8 9 8 10 10 17 15 12 8 9 8 7 6 6 5 7 6 4 4 6
11 11 12 9 12 9 6 8 7 7 7 7 7 7 7 7 6 5 5 5 10 10 11 6 5 6 7 10 10 11 7 8 8 7 6 6 4 6 5 4 3 3 3
11 11 11 8 10 9 6 2 6 5 2 9 10 9 8 8 8 10 9 7 7 9 8 5 4 5 7 8 7 8 6 9 9 6 6 6 6 5 4 4 4 4 3
11 10 10 9 7 8 6 5 13 8 14 13 9 9 9 13 17 14 10 15 14 17 7 6 7 8 8 7 8 8 6 9 7 6 5 7 6 7 7 7 6 6 5
12 11 10 9 10 9 8 8 6 5 10 13 10 13 15 16 17 13 11 13 18 13 6 7 7 8 10 9 8 7 7 7 6 9 8 8 8 9 7 8 7 5 3
12 14 10 9 11 9 9 9 8 7 7 5 8 6 13 17 15 14 12 11 5 4 6 6 6 7 8 10 10 8 5 7 5 4 8 8 6 7 4 7 6 5 6
13 10 11 11 9 11 10 9 10 11 9 8 6 6 8 10 9 6 13 8 8 8 7 7 7 7 6 6 8 8 9 7 9 5 4 6 6 5 5 6 7 8 7
13 13 13 10 9 11 9 10 9 10 11 10 10 9 8 7 8 8 8 8 9 9 9 9 8 5 7 6 5 7 6 5 6 9 9 6 7 8 8 7 8 6 7
12 12 11 9 11 10 10 10 9 9 11 11 12 13 15 11 10 11 11 11 10 9 10 10 9 8 5 7 8 7 6 5 7 8 9 8 7 7 7 6 6 8 5
12 12 11 12 9 11 11 9 10 10 10 11 12 13 20 14 12 11 11 12 12 11 9 8 10 10 9 7 6 8 9 9 7 7 7 9 8 7 6 7 7 5 5
14 14 14 13 12 9 8 11 10 10 10 10 10 11 14 13 13 13 13 12 12 11 10 9 8 8 9 9 9 9 9 10 8 8 10 10 8 7 7 7 6 7 5
14 14 14 14 13 12 11 11 11 11 12 11 10 11 15 14 14 15 14 13 13 13 13 12 13 14 10 8 7 11 11 10 9 9 11 9 9 8 7 5 7 7 5
11 12 11 13 14 14 11 12 12 12 12 11 10 10 13 15 15 14 13 13 13 13 15 15 13 16 19 18 12 11 10 11 12 10 6 9 10 10 9 7 6 5 13
10 7 11 8 12 13 14 10 13 13 12 13 11 11 12 14 15 14 14 13 12 12 14 12 15 21 19 18 20 16 10 10 11 12 10 6 6 8 9 8 11 11 15
Wind_Direction
152 139 126 139 145 144 148 115 126 135 120 131 136 132 169 149 118 136 137 135 134 175 105 11 47 77 144 173 118 122 110 119 115 103 112 118 122 123 126 121 127 127 121
171 143 133 156 121 129 157 134 156 188 137 170 175 169 165 94 92 127 168 181 153 191 184 111 159 284 111 100 103 98 106 112 126 123 123 119 118 125 120 106 100 101 111
176 127 130 116 121 131 138 162 193 179 171 172 130 105 78 98 68 50 93 102 140 208 90 150 147 172 123 117 106 96 101 113 115 125 124 119 108 107 105 104 99 92 89
163 129 126 112 148 150 133 190 197 160 145 123 110 83 89 76 80 79 65 82 210 101 83 83 72 60 78 110 108 112 118 123 121 118 117 119 107 105 103 112 102 107 104
134 134 133 126 147 150 157 146 257 135 157 115 99 88 88 103 54 50 76 48 95 94 93 96 92 81 64 110 125 125 122 127 126 117 118 112 111 113 114 115 111 106 95
128 141 141 149 136 147 141 140 126 74 73 107 109 113 203 84 54 43 11 79 94 115 107 100 103 89 77 101 107 108 125 134 133 125 123 125 113 117 130 134 134 141 123
149 142 143 142 137 156 150 138 120 100 99 102 120 123 98 98 67 37 15 87 102 98 108 114 100 100 98 96 92 91 82 76 103 137 130 133 129 147 145 139 146 147 133
169 142 153 137 140 129 134 125 121 129 133 138 146 116 106 107 57 30 352 96 99 100 107 109 113 114 109 111 113 112 108 110 111 121 126 137 139 152 151 152 158 120 128
165 150 158 148 135 151 121 128 126 123 130 130 111 117 115 128 46 20 359 91 87 81 87 109 97 103 108 106 114 116 106 97 81 95 100 112 126 158 155 164 142 139 152
159 160 139 141 143 143 136 131 141 123 125 108 83 89 106 114 50 16 1 90 102 98 85 86 98 114 118 116 125 123 119 127 124 120 112 116 167 166 42 52 155 149 150
157 148 143 154 136 136 121 127 135 139 127 126 119 120 114 126 91 18 18 115 124 112 107 107 108 112 123 117 125 135 138 140 139 138 141 154 179 197 217 223 175 160 179
156 158 131 132 133 132 133 141 129 132 134 130 132 121 131 126 116 56 36 89 142 121 117 119 108 109 121 124 126 121 122 132 139 139 145 164 178 196 197 119 86 51 219
156 147 133 148 127 140 145 146 149 158 139 145 151 147 135 130 124 107 79 48 32 124 113 99 115 116 118 110 131 134 147 142 148 149 163 174 186 174 116 94 86 81 57
153 147 143 165 141 149 163 155 164 177 177 154 153 143 149 143 145 142 139 115 91 95 108 118 123 115 105 118 132 149 160 159 163 175 172 170 144 136 139 138 142 146 94
153 152 154 171 154 154 170 192 181 49 178 158 155 157 151 152 155 154 161 142 136 137 132 140 145 124 127 149 163 182 187 182 184 181 174 137 144 146 152 154 169 175 151
159 160 166 172 176 168 149 136 43 66 91 72 74 152 159 142 148 161 168 152 154 158 160 163 160 148 154 169 181 201 215 174 187 166 148 152 161 176 182 182 185 183 172
168 164 171 183 177 175 177 170 139 55 43 63 61 115 134 151 149 148 155 149 163 165 177 182 180 172 170 178 197 208 194 175 186 173 168 173 180 193 184 182 192 181 178
173 169 176 200 170 189 184 178 174 163 159 126 35 101 130 146 148 145 141 132 158 224 221 191 193 199 187 181 188 204 189 179 207 188 172 178 186 192 173 181 186 184 190
175 177 191 186 182 190 182 191 183 172 180 163 128 89 95 90 83 118 159 174 182 202 226 230 223 200 192 189 190 193 197 192 191 193 185 177 187 183 181 188 190 199 196
177 193 187 180 203 179 197 189 198 175 174 178 162 162 158 149 170 179 195 204 202 202 212 227 249 208 189 199 203 197 200 185 180 192 203 194 190 199 206 200 199 198 197
176 189 190 222 192 189 192 193 200 196 179 185 181 171 167 187 188 188 189 199 213 215 205 209 224 242 211 191 201 203 205 196 196 198 198 204 202 202 206 210 202 199 185
181 182 188 203 214 201 191 202 194 201 204 189 186 167 169 188 193 197 200 207 212 218 229 208 208 213 221 213 200 201 208 207 207 198 197 199 204 206 196 203 211 190 177
184 189 185 196 218 205 183 195 201 200 206 207 198 152 179 193 199 200 203 207 208 214 226 240 247 230 215 211 206 207 211 214 205 197 200 207 204 202 207 204 190 201 186
193 190 194 191 199 224 201 198 202 202 205 207 204 159 181 194 199 203 204 204 207 209 214 218 226 235 251 230 209 205 207 208 201 209 199 194 201 193 205 199 197 187 149
214 201 212 189 197 202 224 194 202 205 203 212 206 192 185 194 201 207 199 205 210 210 207 210 216 222 225 237 242 230 217 195 205 202 190 198 199 195 195 195 175 164 135
283 218 213 238 191 198 206 220 199 206 208 205 212 206 189 196 204 207 206 211 210 210 212 212 211 213 215 220 227 236 227 202 204 203 200 185 185 200 201 188 167 137 149